Regional Weather Roundup
Issued by NWS Sterling, VA

Home | Current Version | Previous Version | Text Only | Print | Product List | Glossary Off
Versions: 1 2 3 4 5 6 7 8 9 10 11 12 13 14 15 16 17 18 19 20 21 22 23 24 25 26 27

000
ASUS41 KLWX 310410
RWRLWX

REGIONAL WEATHER ROUNDUP
NATIONAL WEATHER SERVICE BALTIMORE MD/WASHINGTON DC
1200 AM EDT FRI OCT 31 2014

Note: "FAIR" indicates few or no clouds below 12,000 feet
with no significant weather and/or obstructions to visibility.
 TC=TEMPERATURE CELSIUS

 * =Non NWS site. Station does not report precipitation (e.g. rain,
    snow, etc.), thunder, or fog.

DCZ001-MDZ009-015-VAZ040>042-051-053>054-310500-
WASHINGTON METRO

CITY           SKY/WX    TMP DP  RH WIND       PRES   REMARKS
WASHINGTON NAT PTCLDY    50  36  58 NW7       30.05S
DULLES         PTCLDY    36  34  92 CALM      30.05S
ANDREWS AFB    CLEAR     42  35  77 N5        30.03F
FT BELVOIR     CLEAR     42  38  87 CALM      30.05F
QUANTICO       CLEAR     44  38  79 NW5       30.05F
COLLEGE PARK*  CLOUDY    46  41  81 CALM      30.04S
LEESBURG*      CLOUDY    45  43  93 CALM      30.05S
MANASSAS*      CLEAR     37  37 100 CALM      30.05F
GAITHERSBURG*  CLOUDY    45  37  76 CALM      30.07F

$$

MDZ006>007-011-014-310500-
BALTIMORE METRO

CITY           SKY/WX    TMP DP  RH WIND       PRES   REMARKS
BWI AIRPORT    MOCLDY    49  39  68 CALM      30.03F
MD SCIENCE CTR   N/A     53  37  54 MISG      30.04S
MARTIN STATE   CLEAR     43  39  87 CALM      30.05F
ANNAPOLIS      CLOUDY    52  41  66 NW3       30.03F
FORT MEADE*    CLOUDY    45  41  87 CALM      30.06S

$$

MDZ012-015-019>023-310500-
MARYLAND EASTERN SHORE

CITY           SKY/WX    TMP DP  RH WIND       PRES   REMARKS
OCEAN CITY     CLEAR     44  39  82 N6        30.02S
SALISBURY      CLEAR     47  38  71 N3        30.02F
BAY BRIDGE AP*   N/A     52  39  62 NW3       30.04S
CAMBRIDGE*     CLEAR     48  39  71 N3        30.02F
EASTON*        CLEAR     46  42  83 CALM      30.07S

$$

MDZ017>025-310500-
SOUTHERN MARYLAND

CITY           SKY/WX    TMP DP  RH WIND       PRES   REMARKS
PATUXENT RIVER CLEAR     50  40  68 N6        30.03F
ST INIGOES     CLEAR     44  37  76 CALM      30.02F
LEONARDTOWN*   CLEAR     41  37  87 CALM      30.04F

$$

MDZ003>005-310500-
NORTH CENTRAL MARYLAND

CITY           SKY/WX    TMP DP  RH WIND       PRES   REMARKS
FREDERICK*     CLOUDY    50  43  76 CALM      30.07S
HAGERSTOWN APT CLEAR     46  35  65 CALM      30.03F
WESTMINSTER*   CLOUDY    46  39  76 CALM      30.03S

$$

MDZ501>502-310500-
WESTERN MARYLAND

CITY           SKY/WX    TMP DP  RH WIND       PRES   REMARKS
OAKLAND*       CLOUDY    37  32  81 CALM      30.01F
CUMBERLAND*    CLOUDY    46  37  71 CALM      30.08F

$$

VAZ025>031-310500-
SHENANDOAH VALLEY

CITY           SKY/WX    TMP DP  RH WIND       PRES   REMARKS
WINCHESTER*    CLOUDY    45  32  61 CALM      30.03F
FRONT ROYAL*   FAIR      41  36  81 S3        30.03F
LURAY*         FAIR      37  37 100 SW3       30.04F
NEW MARKET*    FAIR      34  32  94 CALM      30.05S
STAUNTON*      CLEAR     33  30  90 CALM      30.06F
WAYNESBORO*    FAIR      34  32  92 SW3       30.03F

$$

WVZ021-048>050-054>055-310500-
EASTERN WEST VIRGINIA PANHANDLE

CITY           SKY/WX    TMP DP  RH WIND       PRES   REMARKS
MARTINSBURG    CLOUDY    48  36  63 CALM      30.04F
PETERSBURG*    PTCLDY    39  34  81 CALM      30.06S

$$

VAZ036>039-050-310500-
CENTRAL FOOTHILLS

CITY           SKY/WX    TMP DP  RH WIND       PRES   REMARKS
CHARLOTTESVILL CLEAR     39  34  82 CALM      30.04F
CULPEPER*      CLEAR     36  36 100 CALM      30.05F
ORANGE*        CLEAR     41  34  75 CALM      30.05F
GORDONSVILLE*  FAIR      37  35  92 CALM      30.04S
WARRENTON*     FAIR      33  33 100 CALM      30.04S

$$

VAZ055>057-310500-
NORTH AND CENTRAL PIEDMONT

CITY           SKY/WX    TMP DP  RH WIND       PRES   REMARKS
FREDERICKSBRG* CLEAR     42  38  86 CALM      30.04F
STAFFORD*      CLEAR    N/A N/A N/A CALM      30.08F

$$

NCZ024-NYZ072-PAZ021-071-VAZ022-071-310500-
OTHER REGIONAL OBSERVATIONS

CITY           SKY/WX    TMP DP  RH WIND       PRES   REMARKS
NEW YORK CITY  CLEAR     48  34  58 MISG      30.04F
PHILADELPHIA   CLEAR     47  34  60 NW5       30.04F
PITTSBURGH     CLOUDY    45  36  70 CALM      30.03F
ROANOKE        MOCLDY    45  35  68 N7        30.06S
RICHMOND       PTCLDY    46  37  71 N5        30.04S
RALEIGH        CLEAR     49  43  80 NE5       30.00S

$$

ANZ530>537-310500-
MARINE OBSERVATIONS

STATION/POSITION TIME  TEMP    WIND        PRES
                       AIR SEA DIR/SP/G
                 (UTC) (F)     (DEG/KT/KT) (MB)
THOMAS PT LIGHT  0400   53 61  330/  8/  8 1018.0F
BALT KEY BRIDGE  0400   54     330/  5/  6 1016.9S
COVE POINT       0400   54      60/  9/ 12 1016.7F
LEWISETTA        0400   55 62  360/  7/ 10 1016.4F
SOLOMONS ISLAND  0400      62                N/A
PINEY POINT      0400           30/  7/  7   N/A

$$




USA.gov is the U.S. government's official web portal to all federal, state and local government web resources and services.